Home   Weather   Spain   Adeje   Past weeks
Flag for Spain

Past Weather in Adeje, Canary Islands, Spain — Yesterday and Last 2 Weeks

Currently: 75 °F. Scattered clouds. (Weather station: Tenerife Sur, Spain). See more current weather

Past Weather in Adeje — Graph

°F

Adeje Temperature Yesterday

Maximum temperature yesterday: 77 °F (at 1:30 pm)
Minimum temperature yesterday: 68 °F (at 6:00 am)
Average temperature yesterday: 72 °F

High & Low Weather Summary for the Past Weeks

 TemperatureHumidityPressure
High88 °F (Jun 9, 12:30 pm)88% (Jun 10, 5:00 am)30.18 "Hg (Jun 10, 5:00 am)
Low64 °F (Jun 20, 5:00 am)19% (Jun 11, 11:00 am)29.92 "Hg (Jun 9, 5:30 am)
Average73 °F63%30.09 "Hg
* Reported Jun 8 11:00 am — Jun 23 11:00 am, Adeje. Weather by CustomWeather, © 2021

Note: Actual official high and low records may vary slightly from our data, if they occured in-between our weather recording intervals... More about our weather records

Adeje Weather History for the Previous 24 Hours

Scroll right to see more
 ConditionsComfort  
Time TempWeatherWind HumidityBarometerVisibility
11:00 am
Wed, Jun 23
75 °FScattered clouds.25 mph50%30.09 "HgN/A
10:30 am75 °FScattered clouds.22 mph54%30.09 "HgN/A
10:00 am72 °FScattered clouds.17 mph61%30.12 "HgN/A
9:30 am72 °FPassing clouds.20 mph61%30.09 "HgN/A
9:00 am72 °FScattered clouds.16 mph53%30.09 "HgN/A
8:30 am72 °FScattered clouds.18 mph53%30.09 "HgN/A
8:00 am70 °FPartly sunny.10 mph60%30.09 "HgN/A
7:30 am70 °FPartly sunny.16 mph69%30.09 "HgN/A
7:00 am68 °FPassing clouds.13 mph60%30.09 "HgN/A
6:30 am68 °FPassing clouds.7 mph60%30.09 "HgN/A
6:00 am68 °FPassing clouds.12 mph64%30.09 "HgN/A
5:30 am68 °FPassing clouds.12 mph64%30.09 "HgN/A
5:00 am68 °FPassing clouds.10 mph69%30.09 "HgN/A
4:30 am68 °FPassing clouds.8 mph60%30.09 "HgN/A
4:00 am68 °FPassing clouds.13 mph60%30.09 "HgN/A
3:30 am68 °FPassing clouds.15 mph64%30.12 "HgN/A
3:00 am68 °FPassing clouds.12 mph69%30.12 "HgN/A
2:30 am68 °FPassing clouds.12 mph69%30.12 "HgN/A
2:00 am68 °FPassing clouds.15 mph69%30.12 "HgN/A
1:30 am68 °FPassing clouds.14 mph69%30.15 "HgN/A
1:00 am68 °FPassing clouds.14 mph69%30.15 "HgN/A
12:30 am68 °FPassing clouds.13 mph73%30.15 "HgN/A
12:00 am70 °FPassing clouds.16 mph69%30.15 "HgN/A
11:30 pm
Tue, Jun 22
70 °FPassing clouds.17 mph69%30.15 "HgN/A
11:00 pm70 °FPassing clouds.14 mph60%30.15 "HgN/A
10:30 pm70 °FPassing clouds.17 mph60%30.15 "HgN/A
10:00 pm70 °FPassing clouds.16 mph64%30.12 "HgN/A
9:30 pm72 °FPassing clouds.20 mph65%30.12 "HgN/A
9:00 pm72 °FPassing clouds.17 mph65%30.12 "HgN/A
8:30 pm72 °FScattered clouds.18 mph61%30.12 "HgN/A
8:00 pm73 °FPassing clouds.22 mph57%30.09 "HgN/A
7:30 pm73 °FPassing clouds.25 mph53%30.09 "HgN/A
7:00 pm75 °FPassing clouds.24 mph54%30.09 "HgN/A
6:30 pm75 °FPassing clouds.28 mph54%30.09 "HgN/A
6:00 pm77 °FPassing clouds.29 mph51%30.09 "HgN/A
5:30 pm77 °FPassing clouds.28 mph47%30.09 "HgN/A
5:00 pm77 °FPassing clouds.29 mph47%30.09 "HgN/A
4:30 pm77 °FPassing clouds.29 mph51%30.09 "HgN/A
4:00 pm77 °FPassing clouds.25 mph47%30.12 "HgN/A
3:30 pm77 °FPassing clouds.26 mph47%30.12 "HgN/A
3:00 pm77 °FPassing clouds.28 mph47%30.12 "HgN/A
2:30 pm75 °FPassing clouds.26 mph54%30.12 "HgN/A
2:00 pm77 °FScattered clouds.24 mph47%30.12 "HgN/A
1:30 pm77 °FPartly sunny.25 mph51%30.12 "HgN/A
1:00 pm75 °FPartly sunny.25 mph54%30.15 "HgN/A
12:30 pm75 °FPartly sunny.22 mph47%30.15 "HgN/A
12:00 pm73 °FPartly sunny.21 mph50%30.15 "HgN/A
Weather by CustomWeather, © 2021

See weather overview